Location: Arborwood Park
(40.6605°N, 111.8291°W)
Time: 23:05:05
(UTC+00:00)

Daily predictions for brighter satellites

Satellite Brightness Start Highest point End
(mag) Time Altitude Azimuth Time Altitude Azimuth Time Altitude Azimuth
SL-16 R/B 3.9 12:02:18 15° N 12:05:54 28° NE 12:10:43 10° ESE
Cosmos 1937 Rocket 4.4 12:08:11 29° NNE 12:10:18 44° ENE 12:15:10 10° SE
Cosmos 372 Rocket 3.9 12:11:44 77° NE 12:11:50 78° ENE 12:16:53 10° SSE
Aureole 1 Rocket 4.3 12:09:02 37° NNW 12:12:20 90° W 12:19:49 10° SSE
Cosmos 2142 Rocket 4.3 12:14:09 55° NNW 12:15:34 75° W 12:21:43 10° S
COSMO-SKYMED 1 4.0 12:22:25 10° SE 12:26:08 34° ENE 12:29:24 13° N
Cosmos 1980 Rocket 2.8 12:28:37 37° SW 12:28:37 37° SW 12:32:33 10° S
NOAA 12 4.3 12:25:08 10° NNE 12:30:25 70° ESE 12:35:38 10° S
FengYun 1-2 T 4.1 12:24:54 10° N 12:30:33 73° WNW 12:36:10 10° SSW
BREEZE-M DEB (TANK) 3.4 12:31:04 33° NNE 12:31:04 33° NNE 12:34:55 10° ENE
Cosmos 489 Rocket 4.3 12:26:30 10° SSW 12:32:48 74° WNW 12:39:06 10° NNE
Cosmos 2369 3.6 12:33:33 48° NW 12:35:06 70° WSW 12:40:42 10° SSE
Cosmos 1428 Rocket 4.4 12:28:56 10° S 12:35:08 85° W 12:41:27 10° N
Nadezhda 4 Rocket 3.9 12:28:56 10° SSW 12:35:13 71° W 12:41:31 10° N
Cosmos 2098 Rocket 4.4 12:37:56 35° SW 12:37:56 35° SW 12:41:46 10° SSW
BREEZE-M DEB (TANK) 4.0 12:38:24 25° NNE 12:38:24 25° NNE 12:40:26 10° NE
CZ-4 R/B 3.7 12:34:41 10° NNE 12:39:20 83° ESE 12:43:56 10° SSW
CZ-3 R/B 4.1 12:32:53 23° WSW 12:40:36 30° SW 12:48:14 10° SSE
COSMOS 2455 2.7 12:38:25 39° NW 12:40:41 70° WSW 12:46:38 10° SSE
SKYMED 2 3.5 12:41:21 10° SSE 12:45:40 90° E 12:48:10 25° NNW
Tiangong -1.1 12:46:33 40° S 12:46:33 40° S 12:49:10 10° SE
Cosmos 2058 Rocket 4.2 12:44:18 10° N 12:48:33 44° ENE 12:52:44 10° SSE
Cosmos 2195 Rocket 4.4 12:43:26 10° S 12:49:42 82° W 12:56:02 10° N
Cosmos 2333 Rocket 2.9 12:52:40 10° NNW 12:58:20 53° ENE 13:03:55 10° SE
Cosmos 2360 Rocket 3.5 12:54:32 10° N 12:59:44 37° ENE 13:04:53 10° SE
Cosmos 841 Rocket 3.9 12:59:06 31° W 13:00:30 37° WNW 13:05:22 10° N
Meteor 2-20 4.4 12:54:52 10° N 13:01:01 88° E 13:07:05 10° S
NOSS 2-1 (D) 3.7 13:01:37 39° WNW 13:02:45 53° WSW 13:07:49 10° SSE
USA 59 Rocket 0.4 13:03:00 37° W 13:04:08 47° WSW 13:09:13 10° SSE
Cosmos 1606 Rocket 4.0 13:04:11 34° WNW 13:05:02 38° W 13:09:06 10° SSW
NOSS 2-1 (E) 3.7 13:11:15 31° WNW 13:12:56 54° WSW 13:17:58 10° SSE
Cosmos 2219 Rocket 3.8 13:12:38 10° N 13:17:38 31° ENE 13:22:34 10° ESE
Cosmos 1484 Rocket 2.3 13:16:14 10° NNE 13:19:39 88° W 13:23:00 10° SSW
Cosmos 1758 Rocket 4.4 13:16:40 10° S 13:20:58 54° E 13:25:17 10° NNE
Cosmos 2322 Rocket 2.6 13:17:08 10° NNW 13:22:47 63° ENE 13:28:24 10° SE
Meteor 2-20 Rocket 4.2 13:17:07 10° N 13:22:53 88° W 13:28:35 10° S
Cosmos 1726 Rocket 4.4 13:28:08 17° NW 13:30:25 27° W 13:33:56 10° SSW
IRS-1D 4.3 13:27:17 10° N 13:31:31 28° WNW 13:35:48 10° SW
Meteor 2-3 Rocket 4.3 13:26:52 10° SW 13:32:03 34° WNW 13:37:12 10° N
Cosmos 1733 1.1 13:30:43 10° S 13:32:19 72° E 13:33:49 11° NNE
Okean 1 2.9 13:29:41 10° NNW 13:33:14 68° W 13:36:45 10° S
Cosmos 2221 4.1 13:30:24 10° N 13:34:13 34° ENE 13:37:59 10° SE
Cosmos 1743 3.1 13:33:12 10° S 13:36:21 53° E 13:39:32 10° NNE
Meteor 1-26 Rocket 4.2 13:31:09 10° NNW 13:36:37 62° W 13:42:15 10° S
SMAP 3.7 13:33:11 10° NNE 13:37:49 60° E 13:42:24 10° S
Helios 1A Rocket 3.2 13:35:03 10° SSW 13:38:01 30° W 13:40:25 14° NW
NOSS 3-1 (C) 4.5 13:33:41 12° NW 13:40:34 50° WSW 13:49:18 10° S
COSMOS 2406 4.2 13:36:29 10° WSW 13:41:00 24° NW 13:45:33 10° N
Cosmos 2285 Rocket 4.2 13:36:16 10° NNW 13:42:40 77° ENE 13:49:04 10° SSE
Cosmos 1626 Rocket 3.5 13:39:53 10° SSW 13:44:16 68° W 13:48:41 10° N
Cosmos 2082 Rocket 3.9 13:48:00 11° WNW 13:49:03 12° NW 13:51:11 10° NNW
SL-16 R/B 2.6 13:44:47 10° NW 13:50:07 43° WSW 13:55:26 10° S
SAR-Lupe-4 4.4 13:47:24 10° NNE 13:50:52 53° E 13:54:21 10° S
SL-4 R/B 3.0 13:51:32 10° NNW 13:54:14 24° NNE 13:56:53 10° E
ARIANE 5 R/B 3.0 13:55:38 10° NNE 14:00:51 71° ESE 14:06:03 10° S
COSMO-SKYMED 1 3.9 13:58:39 10° SW 14:01:31 18° W 14:04:24 10° NW
Cosmos-2242 3.9 13:58:58 10° NNW 14:02:33 27° W 14:06:05 10° SSW
BREEZE M DEB (TANK) 2.3 14:03:24 10° W 14:05:41 43° NNW 14:09:57 10° NE
ATLAS 3B R/B 4.3 13:59:19 10° NNW 14:06:13 32° NE 14:12:49 10° E
CZ-2D R/B 2.7 14:05:51 10° N 14:09:01 70° WNW 14:12:09 10° SSW
Okean 1-7 Rocket 3.8 14:06:07 10° S 14:10:37 81° E 14:15:06 10° N
USA 267 4.3 14:06:24 10° NE 14:12:44 51° SE 14:19:02 10° SSW
